TimeCDT,TemperatureF,Dew PointF,Humidity,Sea Level PressureIn,VisibilityMPH,Wind Direction,Wind SpeedMPH,Gust SpeedMPH,PrecipitationIn,Events,Conditions,WindDirDegrees,DateUTC
12:55 AM,35.1,30.9,85,30.30,10.0,WNW,3.5,-,N/A,,Clear,290,2012-10-07 05:55:00
1:55 AM,34.0,28.9,82,30.31,10.0,West,3.5,-,N/A,,Clear,270,2012-10-07 06:55:00
2:55 AM,30.9,28.9,92,30.31,10.0,West,4.6,-,N/A,,Clear,280,2012-10-07 07:55:00
3:55 AM,30.9,28.0,89,30.30,10.0,WNW,4.6,-,N/A,,Clear,290,2012-10-07 08:55:00
4:55 AM,28.9,27.0,92,30.30,10.0,West,4.6,-,N/A,,Clear,280,2012-10-07 09:55:00
5:55 AM,27.0,25.0,92,30.30,10.0,West,3.5,-,N/A,,Clear,280,2012-10-07 10:55:00
6:55 AM,26.1,25.0,96,30.30,10.0,West,3.5,-,N/A,,Clear,280,2012-10-07 11:55:00
7:55 AM,28.9,26.1,89,30.30,10.0,WNW,3.5,-,N/A,,Clear,290,2012-10-07 12:55:00
8:55 AM,37.0,30.9,79,30.32,10.0,West,3.5,-,N/A,,Clear,280,2012-10-07 13:55:00
9:55 AM,43.0,24.1,47,30.32,10.0,WNW,4.6,-,N/A,,Clear,300,2012-10-07 14:55:00
10:55 AM,46.0,26.1,46,30.32,10.0,WNW,11.5,16.1,N/A,,Clear,300,2012-10-07 15:55:00
11:55 AM,48.0,26.1,42,30.30,10.0,WNW,10.4,-,N/A,,Clear,290,2012-10-07 16:55:00
12:55 PM,50.0,27.0,41,30.28,10.0,NNW,6.9,-,N/A,,Clear,330,2012-10-07 17:55:00
1:55 PM,51.1,24.1,35,30.25,10.0,West,6.9,-,N/A,,Clear,270,2012-10-07 18:55:00
2:55 PM,52.0,23.0,32,30.22,10.0,Variable,6.9,16.1,N/A,,Clear,0,2012-10-07 19:55:00
3:55 PM,52.0,23.0,32,30.19,10.0,Variable,4.6,-,N/A,,Clear,0,2012-10-07 20:55:00
4:55 PM,52.0,25.0,35,30.18,10.0,SSW,5.8,-,N/A,,Clear,200,2012-10-07 21:55:00
5:55 PM,51.1,24.1,35,30.18,10.0,West,5.8,-,N/A,,Clear,270,2012-10-07 22:55:00
6:55 PM,45.0,24.1,44,30.18,10.0,Calm,Calm,-,N/A,,Clear,0,2012-10-07 23:55:00
7:55 PM,37.0,26.1,65,30.19,10.0,South,4.6,-,N/A,,Clear,170,2012-10-08 00:55:00
8:55 PM,37.0,27.0,67,30.19,10.0,South,3.5,-,N/A,,Clear,180,2012-10-08 01:55:00
9:55 PM,37.0,25.0,62,30.19,10.0,South,4.6,-,N/A,,Clear,190,2012-10-08 02:55:00
10:55 PM,36.0,25.0,64,30.18,10.0,South,4.6,-,N/A,,Clear,190,2012-10-08 03:55:00
11:55 PM,35.1,26.1,70,30.16,10.0,South,5.8,-,N/A,,Clear,190,2012-10-08 04:55:00